User: anonymous   Login
Location: Unspecified
(0.0000°N, 0.0000°E)
Time: 06:43:51
(UTC+00:00)
Language:

KKS-1 - Orbit

View from above orbital plane
View from above orbital plane
View from above satellite
View from above satellite

Ground track
Ground track

The orbit data is extracted from the following two-line orbital elements,

1 33499U 09002H   17087.90286524 +.00000250 +00000-0 +45072-4 0  9997
2 33499 098.3222 250.9763 0007923 269.5755 090.4545 14.75153718439104
Epoch (UTC): 28 March 2017 21:40:07
Eccentricity: 0.0007923
inclination: 98.3222°
perigee height: 639 km
apogee height: 650 km
right ascension of ascending node: 250.9763°
argument of perigee: 269.5755°
revolutions per day: 14.75153718
mean anomaly at epoch: 90.4545°
orbit number at epoch: 43910

The dashed part of the orbit path shows where the satellite is in the earth's shadow,  

DLR